Погода в Рамле

Израиль     31°55′51″N   34°52′09″E
темп.,
°C
ветер,
м/с
пор.,
м/с
влажн.,
%
обл.,
%
осадки,
мм/ч
давл.,
гПа
погр.,
м
28 февраля, вс
вс2823:00+16с69697 0.0 1015402
02:00+16с57734 0.0 1015503
05:00+15с46750 0.0 1015491
08:00+17ссз45700 0.0 1017736
11:00+18сз44590 0.0 10171016
14:00+18зсз66620 0.0 10161088
17:00+17зсз44650 0.0 1017761
20:00+15зсз33693 0.0 1018707
1 марта, пн
пн123:00+16зюз336474 0.1 1019774
02:00+15зюз346387 0.1 1018840
05:00+15зюз4562100 0.1 1018846
08:00+16юз566299 0.3 10191130
11:00+17зюз555854 0.1 10201040
14:00+17зюз666428 0.2 1018951
17:00+16зюз567013 0.1 1018772
20:00+15ююз34716 0.2 1019498
2 марта, вт
вт223:00+14ю45730 0.0 1020262
02:00+14ю457421 0.1 1019374
05:00+15ююз477467 0.1 1019569
08:00+15ююз677153 0.4 1020998
11:00+16юз776113 0.1 10201219
14:00+16юз77636 0.1 1018896
17:00+15юз45680 0.0 1018662
20:00+15ю46747 0.1 1019431
3 марта, ср
ср323:00+14ююз35762 0.3 1019411
02:00+15юз467216 0.5 1019734
05:00+14юз567056 0.2 1019804
08:00+15юз456367 0.3 1019927
11:00+16зюз556041 0.4 10191193
14:00+16зюз886026 0.6 10171217
17:00+15зюз67620 0.2 10171090
20:00+13зюз346522 1.1 1018434
4 марта, чт
чт423:00+13юз2365100 1.8 1018401
02:00+12ю237094 2.8 1017222
05:00+12юз23656 0.5 1018586
08:00+13юз246527 0.8 1019614
11:00+16сз565547 0.3 10201368
14:00+17сз555932 0.3 10191151
17:00+16сз456519 0.1 1020856
20:00+15зсз236512 0.1 1022776